(41801) = 1976 UR14 = 1979 OM2 = 2000 WG22

Discovered at Socorro on 2000-11-20 by LINEAR.

Orbit

Orbit type: Main Belt

Note: WebGL enabled browser required.

epoch2023-09-13.0
epoch JD2460200.5
perihelion date2024-04-27.63116
perihelion JD2460428.13116
argument of perihelion (°)196.88041
ascending node (°)164.13515
inclination (°)5.56864
eccentricity0.1280824
perihelion distance (AU)1.9740825
Tisserand w.r.t. Jupiter3.6
ΔV w.r.t. Earth (km/sec)8.9
semimajor axis (AU)2.2640699
mean anomaly (°)294.14317
mean daily motion (°/day)0.28931380
aphelion distance (AU)2.554
period (years)3.41
P-vector [x]0.99946830
P-vector [y]0.02626032
P-vector [z]-0.01932648
Q-vector [x]-0.01895845
Q-vector [y]0.95028884
Q-vector [z]0.31079206
absolute magnitude16.54
phase slope0.15
uncertainty0
referenceMPEC 2023-N62
observations used852
oppositions20
arc length (days)17064
first opposition used1976
last opposition used2023
residual rms (arc-secs)0.73
perturbers coarse indicatorM-v
perturbers precise indicator003Ek
first observation date used1976-10-22.0
last observation date used2023-07-12.0
computer nameMPCLINUX
JD of orbit computation2456494.360180
perihelion JD uncertainty (days)5.2905E-05
argument of perihelion uncertainty (°)4.1072E-05
ascending node uncertainty (°)3.7615E-05
inclination uncertainty (°)7.0141E-06
eccentricity uncertainty 5.9045E-08
perihelion distance uncertainty (AU)1.3382E-07
Minimum Orbit Intersection Distances (in AU)
for orbit epoch: 2460000.5, reference: E2023-N62
Mercury1.60517
Venus1.24843
Earth0.96991
Mars0.57517
Jupiter2.87524
Saturn6.74849
Uranus15.8949
Neptune27.8319

Observations

876 total observations over interval: 1976 10 22.52097 – 2023 07 12.314910
These data are available for download (format description).

Date (UT) J2000 RA J2000 Dec Magn Location Ref
1976 10 22.52097 01 40 26.08 +02 26 34.7 18.8   381 – Tokyo-Kiso MPC 5574
1976 10 22.57580 01 40 23.17 +02 26 08.6 18.8   381 – Tokyo-Kiso MPC 5574
1979 07 24.29653 19 54 18.90 -13 05 01.9 20.0   675 – Palomar Mountain MPC 5755
1979 07 24.56597 19 54 03.36 -13 06 27.1   413 – Siding Spring Observatory MPC 5755
1979 07 25.24097 19 53 24.23 -13 10 16.4   675 – Palomar Mountain MPC 5755
1979 07 26.18819 19 52 29.43 -13 15 39.9   675 – Palomar Mountain MPC 5755
1979 07 28.47749 19 50 18.16 -13 28 40.8   413 – Siding Spring Observatory MPC 5755
1995 02 24.38092 11 18 32.92 +04 19 14.8   691 – Steward Observatory, Kitt Peak-Spacewatch MPS 25268
1995 02 24.40569 11 18 31.41 +04 19 27.1 19.7 V 691 – Steward Observatory, Kitt Peak-Spacewatch MPS 25268
1995 02 24.42712 11 18 30.25 +04 19 37.5   691 – Steward Observatory, Kitt Peak-Spacewatch MPS 25268
2000 10 31.28999 03 58 59.85 +10 54 43.6 18.6   704 – Lincoln Laboratory ETS, New Mexico MPS 25268
2000 10 31.30486 03 58 59.07 +10 54 38.7 19.1   704 – Lincoln Laboratory ETS, New Mexico MPS 25268
2000 10 31.31875 03 58 58.38 +10 54 34.3 18.7   704 – Lincoln Laboratory ETS, New Mexico MPS 25268
2000 10 31.33266 03 58 57.68 +10 54 30.1 19.0   704 – Lincoln Laboratory ETS, New Mexico MPS 25268
2000 11 19.32445 03 40 44.31 +09 16 05.9 18.2 R 699 – Lowell Observatory-LONEOS MPS 25268
2000 11 19.34775 03 40 42.78 +09 16 00.3   699 – Lowell Observatory-LONEOS MPS 25268
2000 11 19.37104 03 40 41.35 +09 15 54.3   699 – Lowell Observatory-LONEOS MPS 25268
2000 11 19.39436 03 40 39.84 +09 15 48.9   699 – Lowell Observatory-LONEOS MPS 25268
2000 11 20.23312 03 39 48.77 +09 12 26.2 18.8   704 – Lincoln Laboratory ETS, New Mexico MPS 22846
2000 11 20.24895 03 39 47.78 +09 12 23.1 19.1   704 – Lincoln Laboratory ETS, New Mexico MPS 22846
2000 11 20.26364 03 39 46.88 +09 12 19.1 18.8   704 – Lincoln Laboratory ETS, New Mexico MPS 22846
2000 11 20.27820 03 39 45.76 +09 12 16.5 19.4   704 – Lincoln Laboratory ETS, New Mexico MPS 22846
2000 11 20.29286 03 39 44.98 +09 12 12.5 19.2   704 – Lincoln Laboratory ETS, New Mexico MPS 22846
2000 11 26.25684 03 33 49.04 +08 51 36.6 18.2   704 – Lincoln Laboratory ETS, New Mexico MPS 22846
2000 11 26.29056 03 33 46.95 +08 51 30.5 18.2   704 – Lincoln Laboratory ETS, New Mexico MPS 22846
2000 11 26.30654 03 33 46.04 +08 51 28.1 18.8   704 – Lincoln Laboratory ETS, New Mexico MPS 22846
2000 11 26.32681 03 33 44.62 +08 51 24.5 18.2   704 – Lincoln Laboratory ETS, New Mexico MPS 22846
2000 12 17.17908 03 18 43.60 +08 34 39.0 19.2 R 699 – Lowell Observatory-LONEOS MPS 25268
2000 12 17.19866 03 18 43.13 +08 34 40.3   699 – Lowell Observatory-LONEOS MPS 25268
2000 12 17.21839 03 18 42.68 +08 34 42.0   699 – Lowell Observatory-LONEOS MPS 25268
2000 12 17.26830 03 18 41.19 +08 34 45.8   699 – Lowell Observatory-LONEOS MPS 25268
2002 03 16.32938 12 34 54.61 -00 33 14.0 20.1   704 – Lincoln Laboratory ETS, New Mexico MPS 52214
2002 03 16.34295 12 34 53.89 -00 33 07.2 19.5   704 – Lincoln Laboratory ETS, New Mexico MPS 52214
2002 03 16.35653 12 34 53.14 -00 33 00.6 19.7   704 – Lincoln Laboratory ETS, New Mexico MPS 52214
2002 03 16.37028 12 34 52.44 -00 32 57.4 20.1   704 – Lincoln Laboratory ETS, New Mexico MPS 52214
2002 03 21.25900 12 30 34.91 +00 06 59.2 20.1   644 – Palomar Mountain/NEAT MPS 52214
2002 03 21.32853 12 30 31.04 +00 07 33.7 19.6   644 – Palomar Mountain/NEAT MPS 52214
2002 03 21.40111 12 30 26.96 +00 08 09.6 19.9   644 – Palomar Mountain/NEAT MPS 52214
2002 04 15.22944 12 08 42.00 +03 15 39.2 19.7   704 – Lincoln Laboratory ETS, New Mexico MPS 54834
2002 04 15.24325 12 08 41.36 +03 15 44.0 20.2   704 – Lincoln Laboratory ETS, New Mexico MPS 54834
2002 04 15.25706 12 08 40.75 +03 15 49.4 20.1   704 – Lincoln Laboratory ETS, New Mexico MPS 54834
2003 08 01.56002 22 13 59.35 -06 27 54.4 20.0   608 – Haleakala-AMOS MPS 110926
2003 08 01.57047 22 13 59.01 -06 27 58.4 19.6   608 – Haleakala-AMOS MPS 110926
2003 08 01.58107 22 13 58.63 -06 28 02.3 20.0   608 – Haleakala-AMOS MPS 110926
2003 08 05.27846 22 11 48.39 -06 51 12.1 18.4   704 – Lincoln Laboratory ETS, New Mexico MPS 82854
2003 08 05.29019 22 11 47.95 -06 51 16.5 19.0   704 – Lincoln Laboratory ETS, New Mexico MPS 82854
2003 08 05.30230 22 11 47.42 -06 51 20.8 18.8   704 – Lincoln Laboratory ETS, New Mexico MPS 82854
2003 08 05.31491 22 11 46.91 -06 51 25.5 18.6   704 – Lincoln Laboratory ETS, New Mexico MPS 82854
2003 08 05.32596 22 11 46.49 -06 51 30.7 18.7   704 – Lincoln Laboratory ETS, New Mexico MPS 82854
2003 08 18.91543 22 01 36.03 -08 37 35.2 18.1 R 599 – Campo Imperatore-CINEOS MPS 83144
2003 08 18.92541 22 01 35.51 -08 37 40.2 17.9 R 599 – Campo Imperatore-CINEOS MPS 83144
2003 08 18.93538 22 01 34.98 -08 37 45.6 17.8 R 599 – Campo Imperatore-CINEOS MPS 83144
2003 08 19.89973 22 00 46.95 -08 46 10.5 18.0 R 599 – Campo Imperatore-CINEOS MPS 83144
2003 08 19.90971 22 00 46.42 -08 46 15.8 18.0 R 599 – Campo Imperatore-CINEOS MPS 83144
2003 08 19.91966 22 00 45.90 -08 46 21.1 17.9 R 599 – Campo Imperatore-CINEOS MPS 83144
2003 08 19.92964 22 00 45.37 -08 46 26.3 17.8 R 599 – Campo Imperatore-CINEOS MPS 83144
2003 08 22.26405 21 58 48.01 -09 07 04.0 18.0   704 – Lincoln Laboratory ETS, New Mexico MPS 83826
2003 08 22.27690 21 58 47.31 -09 07 11.2 17.9   704 – Lincoln Laboratory ETS, New Mexico MPS 83826
2003 08 22.28951 21 58 46.67 -09 07 17.4 18.0   704 – Lincoln Laboratory ETS, New Mexico MPS 83826
2003 08 22.30211 21 58 45.98 -09 07 24.5 18.5   704 – Lincoln Laboratory ETS, New Mexico MPS 83826
2003 08 25.26920 21 56 16.70 -09 34 01.5 19.0   704 – Lincoln Laboratory ETS, New Mexico MPS 83826
2003 08 25.28168 21 56 16.01 -09 34 06.1 19.2   704 – Lincoln Laboratory ETS, New Mexico MPS 83826
2003 08 25.29458 21 56 15.32 -09 34 13.4 19.4   704 – Lincoln Laboratory ETS, New Mexico MPS 83826
2003 08 25.30707 21 56 14.67 -09 34 20.2 19.3   704 – Lincoln Laboratory ETS, New Mexico MPS 83826
2003 08 25.31942 21 56 13.96 -09 34 26.9 19.3   704 – Lincoln Laboratory ETS, New Mexico MPS 83826
2003 09 01.24360 21 50 38.11 -10 36 25.1 18.4   704 – Lincoln Laboratory ETS, New Mexico MPS 84385
2003 09 01.25542 21 50 37.53 -10 36 31.1 19.0   704 – Lincoln Laboratory ETS, New Mexico MPS 84385
2003 09 01.27902 21 50 36.29 -10 36 43.6 19.5   704 – Lincoln Laboratory ETS, New Mexico MPS 84385
2003 09 01.29091 21 50 35.71 -10 36 49.7 18.8   704 – Lincoln Laboratory ETS, New Mexico MPS 84385
2003 09 15.18477 21 41 53.26 -12 28 16.8 18.6 R 699 – Lowell Observatory-LONEOS MPS 84857
2003 09 15.19975 21 41 52.77 -12 28 20.8   699 – Lowell Observatory-LONEOS MPS 84857
2003 09 15.21470 21 41 52.35 -12 28 29.2   699 – Lowell Observatory-LONEOS MPS 84857
2003 09 15.22958 21 41 51.89 -12 28 35.0   699 – Lowell Observatory-LONEOS MPS 84857
2003 09 17.18244 21 41 02.69 -12 41 51.0 18.2   704 – Lincoln Laboratory ETS, New Mexico MPS 84857
2003 09 17.19508 21 41 02.34 -12 41 56.5 18.8   704 – Lincoln Laboratory ETS, New Mexico MPS 84857
2003 09 17.20754 21 41 01.99 -12 42 01.2 18.8   704 – Lincoln Laboratory ETS, New Mexico MPS 84857
2003 09 17.23198 21 41 01.37 -12 42 11.1 19.1   704 – Lincoln Laboratory ETS, New Mexico MPS 84857
2003 09 24.18235 21 39 05.07 -13 23 21.1 18.6   644 – Palomar Mountain/NEAT MPS 85858
2003 09 24.20309 21 39 04.79 -13 23 27.6 18.7   644 – Palomar Mountain/NEAT MPS 85858
2003 09 24.22440 21 39 04.52 -13 23 34.2 18.6   644 – Palomar Mountain/NEAT MPS 85858
2003 10 24.11175 21 49 15.75 -14 20 25.1 19.4   704 – Lincoln Laboratory ETS, New Mexico MPS 88954
2003 10 24.12934 21 49 16.60 -14 20 24.5 19.6   704 – Lincoln Laboratory ETS, New Mexico MPS 88954
2003 10 24.15855 21 49 17.91 -14 20 20.0 19.4   704 – Lincoln Laboratory ETS, New Mexico MPS 88954
2005 02 02.29105 09 39 06.14 +09 58 21.8 19.9   704 – Lincoln Laboratory ETS, New Mexico MPS 126101
2005 02 02.30384 09 39 05.37 +09 58 26.3 20.1   704 – Lincoln Laboratory ETS, New Mexico MPS 126101
2005 02 02.31666 09 39 04.63 +09 58 33.0 19.5   704 – Lincoln Laboratory ETS, New Mexico MPS 126101
2005 02 02.35456 09 39 02.21 +09 58 46.5 19.6 R 703 – Catalina Sky Survey MPS 126101
2005 02 02.36206 09 39 01.75 +09 58 48.5 19.4 R 703 – Catalina Sky Survey MPS 126101
